Whidbey Island, WA
on Sunday, February 17, 2013

Sunday
Previous Day Next Day
Daily Summary
 ActualAverageRecord
Temperature
Mean Temperature °F °F  
Max Temperature 45°F 47°F 57°F (2007)
Min Temperature 37°F 34°F 23°F (2006)
Degree Days
Heating Degree Days 24    
Moisture
Dew Point 37°F   
Average Humidity 84    
Maximum Humidity 89    
Minimum Humidity 76    
Precipitation
Precipitation 0.11 in in in ()
Wind
Wind Speed 12 mph   
Max Wind Speed 22 mph   
Max Gust Speed 26 mph   
Visibility 9 miles   
Events Rain   
Averages and records for this station are not official NWS values.
Key: T is trace of precipitation, MM is missing value
Source: NWS Daily Summary
Seasonal Weather Averages
Time(PST)TemperatureDew PointHumidity Pressure Visibility Wind DirectionWind SpeedGust SpeedPrecipitationEvents Conditions
12:56 AM 44.1°F 37.9°F 79% 30.21 in 10.0 miles West 18.4 mph 25.3 mph N/A   Overcast
1:56 AM 45.0°F 37.9°F 76% 30.22 in 10.0 miles West 21.9 mph 26.5 mph N/A   Overcast
2:23 AM 44.6°F 37.4°F 76% 30.20 in 9.0 miles West 17.3 mph - 0.00 in Rain Light Rain
2:56 AM 44.1°F 37.9°F 79% 30.22 in 9.0 miles West 18.4 mph 25.3 mph 0.00 in Rain Light Rain
3:56 AM 43.0°F 37.9°F 82% 30.22 in 9.0 miles WNW 13.8 mph - 0.00 in Rain Light Rain
4:56 AM 43.0°F 37.9°F 82% 30.22 in 9.0 miles West 12.7 mph - 0.01 in Rain Light Rain
5:56 AM 43.0°F 37.0°F 80% 30.23 in 7.0 miles WSW 12.7 mph - 0.02 in Rain Light Rain
6:37 AM 42.8°F 37.4°F 81% 30.21 in 10.0 miles West 10.4 mph - 0.00 in   Overcast
6:56 AM 43.0°F 37.0°F 80% 30.23 in 10.0 miles WSW 8.1 mph - 0.00 in   Mostly Cloudy
7:36 AM 39.2°F 35.6°F 87% 30.22 in 10.0 miles East 11.5 mph - N/A   Mostly Cloudy
7:56 AM 39.9°F 36.0°F 86% 30.24 in 10.0 miles East 6.9 mph - N/A   Mostly Cloudy
8:56 AM 39.9°F 37.0°F 89% 30.25 in 10.0 miles East 10.4 mph - N/A   Mostly Cloudy
9:56 AM 41.0°F 37.0°F 86% 30.26 in 10.0 miles East 6.9 mph - N/A   Mostly Cloudy
10:11 AM 42.8°F 37.4°F 81% 30.25 in 10.0 miles East 4.6 mph - 0.01 in Rain Light Rain
10:56 AM 42.1°F 37.9°F 85% 30.25 in 10.0 miles East 4.6 mph - 0.01 in   Mostly Cloudy
11:07 AM 42.8°F 37.4°F 81% 30.24 in 10.0 miles ENE 4.6 mph - 0.00 in Rain Light Rain
11:56 AM 41.0°F 37.0°F 86% 30.26 in 4.0 miles NNE 4.6 mph - 0.06 in Rain Rain
12:11 PM 39.2°F 35.6°F 87% 30.24 in 5.0 miles North 8.1 mph - 0.01 in Rain Light Rain
12:56 PM 42.1°F 37.9°F 85% 30.25 in 10.0 miles NNE 4.6 mph - 0.01 in   Overcast
1:56 PM 41.0°F 37.0°F 86% 30.24 in 10.0 miles North 6.9 mph - N/A   Overcast
2:56 PM 42.1°F 37.9°F 85% 30.22 in 10.0 miles North 5.8 mph - 0.00 in Rain Light Rain
3:24 PM 42.8°F 39.2°F 87% 30.21 in 10.0 miles North 4.6 mph - 0.00 in   Overcast
3:56 PM 44.1°F 39.0°F 82% 30.21 in 10.0 miles NNE 4.6 mph - 0.00 in   Overcast
4:56 PM 44.1°F 37.0°F 76% 30.20 in 10.0 miles East 4.6 mph - N/A   Overcast
5:56 PM 39.9°F 36.0°F 86% 30.19 in 10.0 miles East 3.5 mph - N/A   Mostly Cloudy
6:56 PM 39.0°F 35.1°F 86% 30.18 in 10.0 miles Calm Calm - N/A   Mostly Cloudy
7:56 PM 37.0°F 34.0°F 89% 30.18 in 10.0 miles East 4.6 mph - N/A   Mostly Cloudy
8:56 PM 37.0°F 34.0°F 89% 30.18 in 10.0 miles East 4.6 mph - N/A   Overcast
9:56 PM 37.9°F 35.1°F 89% 30.17 in 10.0 miles East 5.8 mph - N/A   Overcast
10:56 PM 39.0°F 36.0°F 89% 30.15 in 10.0 miles East 5.8 mph - N/A   Overcast
11:56 PM 39.9°F 36.0°F 86% 30.13 in 10.0 miles East 8.1 mph - N/A   Overcast
Moon Phase
Feb. 17 Feb. 17 Feb. 25 Mar. 04 Mar. 11
Sunrise:07:13 AM (PST) Moon Rise:10:32 AM (PST)
Sunset:05:36 PM (PST) Moon Set:01:13 AM (PST)

Copyright © 2014 The Weather Underground, Inc.